Home > Weather > Stralsund > Past weeks

Flag for Germany Weather for the Past 2 Weeks in Stralsund, Mecklenburg-Western Pomerania, Germany

Now
36 °F

Passing clouds.


Feels Like: 33 °F
Forecast: 32 / 39 °F
Wind: 3 mph from Southeast

Location: Laage

Current Time: Feb 12, 2016 at 6:02:34 PM

Latest Report: Feb 12, 2016 at 5:20 PM


Visibility: N/A

Pressure: 29.53 "Hg

Humidity: 93%

Dew point: 34 °F

Location of StralsundLocation

Historic Weather in Stralsund — Graph

°F

Stralsund Temperature Yesterday

Maximum temperature yesterday: 39 °F (at 12:20 AM)
Minimum temperature yesterday: 37 °F (at 8:20 AM)
Average temperature yesterday: 39 °F

High & Low Weather Summary for the Past Weeks

 TemperatureHumidityPressure
High54 °F (Feb 7, 1:20 PM)100% (Jan 30, 5:59 PM)30.18 "Hg (Jan 30, 5:59 PM)
Low32 °F (Feb 5, 2:20 AM)57% (Feb 2, 4:20 PM)28.77 "Hg (Feb 10, 12:20 AM)
Average41 °F85%29.63 "Hg
* Reported Jan 28 4:20 PM — Feb 12 4:20 PM, Stralsund, Weather by CustomWeather, © 2016

Note: Actual official high and low records may vary slightly from our data, if they occured in-between our weather recording intervals... More about our weather records

Advertising

Stralsund Weather History for the Previous 24 Hours

 ConditionsComfort  
Time TempWeatherWind HumidityBarometerVisibility
4:20 PM
Fri, Feb 12
37 °FBroken clouds.3 mph87%29.53 "HgN/A
3:20 PM37 °FPartly sunny.7 mph93%29.53 "HgN/A
2:47 PM37 °FBroken clouds.3 mph93%29.53 "HgN/A
2:20 PM36 °FDrizzle. Broken clouds.3 mph100%29.53 "Hg5 mi
1:20 PM36 °FLight rain. Fog.3 mph93%29.53 "Hg2 mi
12:20 PM36 °FLight rain. Fog.6 mph93%29.56 "Hg3 mi
12:00 PM36 °FLight rain. Fog.6 mph100%29.56 "Hg3 mi
11:20 AM37 °FDrizzle. Partly sunny.6 mph93%29.56 "Hg4 mi
11:02 AM37 °FPartly sunny.5 mph93%29.56 "Hg5 mi
10:20 AM37 °FBroken clouds.3 mph93%29.56 "Hg5 mi
9:20 AM36 °FDrizzle. Partly sunny.2 mph100%29.56 "Hg5 mi
8:48 AM36 °FLight rain. Broken clouds.3 mph100%29.56 "Hg4 mi
8:20 AM36 °FDrizzle. Broken clouds.2 mph93%29.56 "Hg4 mi
7:45 AM36 °FDrizzle. Fog.3 mph100%29.56 "Hg3 mi
7:20 AM36 °FFog.5 mph100%29.56 "Hg3 mi
6:48 AM36 °FDrizzle. Fog.7 mph100%29.53 "Hg3 mi
6:20 AM37 °FLight rain. Passing clouds.8 mph93%29.53 "Hg4 mi
5:20 AM36 °FLight rain. Passing clouds.9 mph100%29.53 "Hg4 mi
4:20 AM37 °FLight rain. Fog.6 mph93%29.53 "Hg3 mi
3:20 AM37 °FLight rain. Fog.6 mph93%29.53 "Hg2 mi
2:20 AM37 °FPassing clouds.7 mph93%29.53 "Hg4 mi
1:20 AM37 °FMostly cloudy.6 mph93%29.53 "Hg4 mi
12:20 AM37 °FLight rain. Passing clouds.6 mph100%29.53 "Hg4 mi
11:20 PM
Thu, Feb 11
37 °FPassing clouds.3 mph93%29.53 "Hg6 mi
10:48 PM37 °FRain. Passing clouds.6 mph93%29.53 "Hg5 mi
10:20 PM37 °FRain. Passing clouds.10 mph93%29.53 "Hg6 mi
9:20 PM37 °FPassing clouds.8 mph93%29.53 "HgN/A
8:20 PM37 °FPassing clouds.9 mph93%29.53 "HgN/A
7:20 PM37 °FLight rain. Partly cloudy.13 mph93%29.53 "HgN/A
7:02 PM37 °FRain. Passing clouds.15 mph93%29.53 "HgN/A
6:20 PM39 °FPassing clouds.10 mph93%29.50 "HgN/A
Weather by CustomWeather, © 2016

See weather overviewHow to use our weather pages